Forside
METAR-TAF:

METAR-TAF

Lufthavne :

Elkhart Municipal Airport

Elkhart, Indiana, USA

Breddekreds: 41-43N, længdekreds: 086-00W, højde: 237 m

Aktuelle vejr

Denne rapport blev lavet for 40 minutter siden, kl. 18:55 UTC
Vind 10 kt fra sydvest med vindstød på up til 19 kt
Temperatur 8°C
Fugtighed 36%
Tryk 1023 hPa
Sigt: 16.1 km
skyfri

METAR: KEKM 221855Z 22010G19KT 10SM CLR 08/M06 A3020 RMK AO2

Tid: 14:35 (19:35 UTC)


TAF: fraværende

Vejrobservationer og prognoser fra mere end 4000 lufthavne (METAR og TAF).

De gule og røde prikker repræsenterer de meteorologiske stationer.

Flyt musen over at se navnet på stationen.

Så klik over at se vejr observationer og prognoser.

At skifte det kort: Klik på de grønne knapper med et sort kors for at zoome ind; på den grønne knap med en bindestreg for at zoome ud; eller på de grønne pile for tilstødende kort.


METAR-TAF: